Location: Dunedin
(45.8670°S, 170.5000°E)
Time: 12:23:52
(UTC+13:00)

Cosmos 2228 Rocket - Pass Details

Date: 24 January 2019
Orbit: 617 x 653 km, 82.5° (Epoch: 19 February)

Event Time Altitude Azimuth Distance (km) Brightness Sun altitude
Rises 22:50:55 0° 340° (NNW) 2,890 6.2 -13.3°
Reaches altitude 10° 22:53:10 10° 335° (NNW) 1,993 5.4 -13.6°
Maximum altitude 22:57:29 53° 258° (WSW) 776 3.9 -14.1°
Drops below altitude 10° 23:01:53 10° 180° (S) 2,029 6.4 -14.6°
Sets 23:04:12 0° 175° (S) 2,948 7.2 -14.9°
